Location: Monteux
(44.0348°N, 4.9972°E)
Time: 18:13:05
(UTC+00:00)

USA 281 - Pass Details

Date: 30 November 2020
Orbit: 1074 x 1084 km, 106.0° (Epoch: 08 January)

Event Time Altitude Azimuth Distance (km) Brightness Sun altitude
Rises 16:26:07 0° 100° (E) 3,878 5.6 -4.4°
Reaches altitude 10° 16:29:29 10° 83° (E) 2,923 4.9 -5.0°
Maximum altitude 16:33:38 18° 43° (NE) 2,373 4.5 -5.7°
Drops below altitude 10° 16:37:48 10° 3° (N) 2,926 5.2 -6.3°
Sets 16:41:09 0° 346° (NNW) 3,884 6.0 -6.9°
